CZ-6A DEB, 61170

Orbit data source: Space-Track

CZ-6A DEB, 61170 is space debris in LEO originally from a launch on Tue, 06 Aug 2024 UTC launched from the Taiyaun Space Center, China (TSC). Debris objects in space refer to the collection of defunct objects orbiting the Earth. Examples of debris include non-operational satellites, rocket bodies, and fragments generated from explosions, collisions, or faulty payload assembly.

Loading next visibility...
Identifier
61170, 2024-140RQ
Orbit
LEO
Country
Flag of CNCN / PRC
Related business
Manufacturer
SAST
Mission
Spacecraft
Bus & Motor
Unknown
Mass
Unknown
Launch date (UTC)
2024-08-06 (2 years ago)
Launch vehicle
Unknown
Launch site
Taiyaun Space Center, China (TSC)
Object type
Payload
Rocket body
Debris
Shape & HBR
Unknown shape, 0.1 m
Radar Cross Section
Medium (>0.1 m² and <1 m²)

Expand to show TLE details & history
Last TLE update: 15 hours ago

TLE from 15 hours ago
0 CZ-6A DEB
1 61170U 24140RQ  26171.21375922  .00000562  00000-0  16098-3 0  9994
2 61170  88.8009 254.8240 0063856 310.5994  48.9662 14.42546376 96185
Epoch: 2026-06-20T05:07Z
TLE epoch observation values (Epoch: 2026-06-20T05:07:48.796Z)
Latitude
-0.00008°
Longitude
-90.56092°
Altitude
723.459 km
Speed
7.509 km/s
True Right ascension
16h 59m 17s
True Declination
0° 00' 00"
Sunlit
Object was in full shadow at epoch
Visualization orbit readout
Latitude
Unknown
Longitude
Unknown
Altitude
Unknown
Speed
Unknown
Apparent Right ascension
Unknown
Apparent Declination
Unknown
Sunlit
N/A
Visualization observer readout
Local Sidereal Time
07:18:05
Azimuth
Unknown
Elevation
Unknown
Doppler factor
Unknown
Orbital elements
Apogee altitude
792.516 km
Perigee altitude
701.519 km
Semi-major axis
7,125.155 km
Eccentricity
0.00639
Inclination
88.8009°
RAAN
254.824°
Arg. of periapsis
310.5994°
True anomaly
49.52106°
Mean anomaly
48.9662°
Eccentric anomaly
49.24334°
Mean motion
3.60871 °/min
Orbital period
99.76 mins
BSTAR
0.00016098
Loading maneuver chart data...
Computing Atmospheric mass density...
Loading historical data...
Loading historical data...
Loading historical data...
Loading historical data...
Loading historical data...
Loading historical data...
Loading historical data...

Documentation

Showing up to 5 results
|